Вернуться в каталог

BREEZE-M DEB

LostHEO
NORAD 39933·DEBRIS·🇷🇺 Russia

Запущен Feb 28, 2006 с Baikonur Cosmodrome

Loading…

Ближайшие Пролёты (ближайшие 24 часа)

TLE

УстаревшееSource: Space-Track

Эпоха: Mar 25, 2021, 01:50 UTC

1 39933U 06006DF  21084.07652881  .00000092  00000-0  18623-3 0  9995
2 39933  51.9818 292.0411 5121115 236.1406  64.3846  5.17735712201909

Отслеживайте BREEZE-M DEB в реальном времени с AllMySat

Download on the App Store